Wind_Speed
15 15 14 15 15 15 15 15 14 14 14 13 13 14 14 14 14 15 15 16 16 16 17 17 17 18 18 19 19 19 19 19 19 20 21 22 23 23 24 25 25 26 27
14 14 14 15 15 15 15 15 14 14 14 13 14 14 14 14 14 14 14 15 15 16 16 16 17 18 19 19 18 18 18 19 19 20 21 22 23 24 25 25 26 26 26
14 13 14 14 15 15 14 15 15 14 14 14 15 15 14 14 15 15 15 15 16 16 16 16 18 19 19 19 19 18 19 19 20 21 22 23 24 24 25 25 26 26 26
13 14 14 14 14 14 14 14 14 14 14 15 15 15 14 14 15 15 15 16 16 17 17 17 18 19 19 19 19 19 20 20 21 21 22 22 23 24 24 25 26 27 27
13 14 14 14 14 14 14 14 14 14 14 15 15 15 15 15 15 15 16 16 16 17 18 19 19 19 19 19 20 20 21 21 22 22 23 23 24 25 26 26 26 27 28
14 14 14 14 14 14 15 14 14 14 14 15 15 15 15 15 15 16 16 16 17 17 18 19 19 20 19 20 20 21 21 22 23 23 23 24 24 25 26 26 26 27 27
15 16 16 15 15 15 15 15 15 15 15 15 15 14 15 15 16 16 16 16 17 17 18 19 19 20 20 21 20 20 21 21 22 22 23 23 24 25 26 26 26 27 26
17 17 17 16 15 15 15 16 16 16 15 15 15 15 15 16 16 16 16 16 17 17 18 19 20 20 21 21 21 21 21 21 22 22 22 24 25 25 26 26 25 25 25
19 18 17 17 17 17 17 17 17 17 16 16 16 16 16 16 16 16 17 17 18 18 19 20 21 21 20 20 21 21 21 21 22 23 23 24 24 24 25 25 25 25 25
19 18 18 18 18 18 18 17 17 18 18 18 17 17 17 17 17 18 18 18 19 19 20 21 21 21 20 20 21 22 22 22 22 22 23 23 23 23 23 24 25 26 26
18 18 18 18 18 18 19 18 18 18 19 19 19 18 18 18 19 19 19 20 20 21 21 21 21 21 20 21 22 22 22 22 22 23 23 23 22 22 22 23 24 25 25
19 19 18 19 19 19 20 20 20 20 20 20 20 20 20 20 20 21 21 21 22 22 22 22 21 20 21 22 22 21 21 21 21 22 22 23 23 23 23 23 23 23 23
21 20 20 20 21 21 21 21 21 21 21 21 21 22 21 21 21 22 22 22 23 22 22 21 20 20 21 21 21 20 20 20 20 21 22 22 22 22 22 23 23 23 22
22 22 22 22 22 22 22 22 22 21 21 21 21 21 22 23 23 22 23 23 23 22 21 21 21 20 20 20 20 20 20 20 21 21 21 21 21 22 22 22 23 23 23
23 23 23 23 22 22 22 22 22 22 21 21 21 22 22 23 23 23 24 24 23 22 21 20 20 20 19 19 19 19 20 20 20 20 21 21 21 22 22 22 23 24 24
23 24 24 24 23 24 24 24 23 22 21 21 21 22 22 23 22 22 22 22 22 22 22 21 20 20 19 19 19 18 18 19 19 20 20 20 20 20 21 22 23 23 22
24 24 25 25 24 24 24 24 23 21 21 21 21 21 22 22 21 21 21 21 21 21 21 20 20 19 18 18 19 19 19 19 19 19 19 19 20 20 21 22 22 22 22
24 24 24 25 25 24 24 23 22 21 21 21 21 21 21 21 20 20 20 20 20 19 19 18 18 18 18 18 19 19 19 19 19 19 19 19 20 20 21 21 21 21 22
23 24 25 25 24 23 23 22 22 22 22 22 21 21 20 20 20 20 20 20 19 19 19 18 18 18 18 19 19 19 19 19 19 19 20 20 20 20 20 20 20 20 20
24 24 25 25 23 23 21 21 21 21 21 21 21 21 21 21 20 20 19 19 19 19 19 19 19 18 18 18 18 19 19 19 20 20 20 20 20 20 20 20 20 20 19
23 24 24 24 23 22 22 22 22 21 21 20 21 21 20 20 19 19 19 18 19 19 19 19 19 19 19 18 18 19 19 20 20 20 20 20 21 20 20 20 20 19 19
23 23 23 22 22 22 22 23 23 22 21 20 20 19 19 19 19 18 18 19 19 19 18 18 17 17 18 18 18 18 19 19 20 20 20 21 21 21 20 20 20 20 20
23 23 22 22 22 22 22 22 22 21 20 19 19 19 19 19 19 19 19 19 19 18 17 16 17 17 17 17 18 18 19 19 19 20 20 20 20 19 19 20 20 20 19
21 21 20 21 22 22 22 22 21 21 20 19 19 19 19 19 19 19 19 19 19 18 17 17 17 17 18 18 19 19 19 19 19 20 20 20 20 19 19 19 19 19 19
22 22 21 22 22 22 21 21 21 20 21 20 19 19 19 19 18 18 19 19 19 18 18 18 18 18 19 19 19 19 19 20 20 20 20 19 19 19 20 20 20 19 19
22 22 22 22 22 22 22 21 20 20 20 20 19 19 19 19 19 19 19 20 19 19 19 19 19 19 19 19 19 18 19 19 19 19 19 19 20 20 20 20 20 19 19
Wind_Direction
288 286 283 286 288 288 287 289 290 288 284 282 282 284 284 281 276 275 271 270 271 273 274 273 275 277 278 277 275 274 272 272 271 270 270 268 268 267 265 264 263 263 263
286 286 285 287 288 288 289 289 291 288 285 285 284 285 285 282 277 273 272 270 272 274 274 275 276 277 280 281 278 274 274 274 272 272 270 269 268 269 267 265 263 263 263
284 287 289 290 290 289 289 290 290 288 286 286 284 283 282 281 277 275 272 271 274 276 276 277 279 281 282 282 280 277 275 273 273 273 273 272 271 270 268 266 263 264 265
285 288 290 292 292 291 291 291 291 292 289 286 285 283 282 282 280 276 273 274 276 277 277 279 281 282 283 281 281 278 276 273 273 274 274 273 272 271 270 268 266 266 267
287 288 289 292 292 290 290 293 295 293 291 290 288 286 283 283 281 277 276 276 276 278 280 281 282 282 282 282 282 280 277 276 275 274 275 275 274 273 272 270 269 269 268
286 288 290 292 294 295 293 291 291 290 290 290 290 289 286 283 281 278 278 278 277 278 280 281 282 281 281 283 284 283 281 279 277 275 277 276 275 275 273 272 271 271 269
285 289 292 293 294 295 294 290 288 289 289 287 289 290 288 283 281 280 280 281 280 281 283 284 285 284 284 286 286 285 283 281 280 278 277 279 277 276 274 273 273 272 271
282 285 288 290 291 293 292 291 287 285 286 287 288 288 286 284 283 284 284 284 283 283 284 286 285 285 285 286 286 285 284 282 280 280 280 281 279 277 275 274 274 273 272
284 283 284 287 288 288 288 288 286 285 284 285 286 285 285 283 284 284 284 286 285 284 285 286 288 288 287 286 285 284 284 283 280 281 282 284 283 280 277 275 275 276 275
285 285 285 286 287 286 287 286 285 285 285 284 286 285 284 283 284 286 285 285 286 285 286 288 291 291 289 287 287 285 284 283 282 282 282 283 283 281 278 276 276 276 275
288 290 288 286 287 288 288 286 285 285 286 285 285 285 283 283 286 287 285 285 285 286 288 290 292 291 292 291 288 286 284 284 283 283 284 284 284 282 280 279 278 276 275
286 289 290 289 288 287 287 286 285 284 284 284 285 285 284 286 287 286 284 284 284 286 289 290 292 292 292 292 291 288 287 286 286 287 286 286 285 283 282 282 280 279 278
282 284 287 289 289 287 285 286 285 284 283 282 284 286 285 285 286 285 283 283 284 286 288 290 292 293 294 292 290 288 286 286 288 290 290 289 287 283 282 282 281 281 280
281 283 285 287 288 288 287 286 283 282 282 283 284 286 287 287 286 285 284 284 284 286 287 289 291 291 292 290 289 288 286 286 289 290 291 290 288 285 282 281 281 281 281
282 284 286 287 287 288 290 289 286 284 281 281 283 286 288 287 285 284 286 284 284 286 286 287 289 290 290 291 291 288 286 287 289 289 291 291 289 286 284 283 283 285 281
282 284 286 286 286 287 289 287 284 284 282 279 282 284 286 286 285 285 285 285 284 286 286 287 290 290 290 292 293 292 290 290 291 291 294 295 293 289 285 283 284 283 282
282 283 284 285 285 285 286 285 283 283 281 282 283 284 286 287 286 287 287 289 288 288 287 287 288 289 289 290 291 291 291 292 293 294 296 296 296 292 288 286 286 286 285
281 282 284 285 284 284 283 282 282 282 282 283 284 284 285 285 285 286 287 288 288 289 289 287 286 288 287 287 289 291 293 292 293 296 297 297 296 297 294 291 290 288 287
282 281 284 285 284 283 282 281 281 280 281 282 283 283 283 283 284 285 287 287 286 287 287 286 286 286 284 286 288 290 291 292 293 295 297 298 298 299 298 295 295 293 291
282 282 283 282 279 279 280 281 281 281 282 282 283 283 282 281 282 283 286 286 286 287 286 285 285 284 283 284 286 289 291 292 293 294 295 296 297 298 299 297 296 295 294
283 284 282 280 277 277 278 279 279 280 282 282 283 281 279 279 280 281 283 285 286 287 285 285 285 284 283 284 286 287 289 293 294 294 296 296 298 298 300 301 299 296 293
283 284 283 279 274 274 275 277 278 280 281 281 281 278 277 277 278 279 281 284 286 286 285 286 287 285 285 286 288 290 291 293 293 294 296 297 297 298 299 301 300 297 295
281 282 281 278 274 274 276 275 275 277 277 277 279 278 277 276 278 280 282 284 285 286 286 286 287 287 288 288 290 292 293 294 294 296 297 298 298 298 299 301 302 300 298
279 280 281 280 278 276 276 274 273 273 273 276 277 278 277 276 277 279 282 284 284 283 283 284 286 287 288 288 290 292 293 294 294 296 298 298 298 298 300 303 303 303 302
278 277 278 278 280 278 277 275 273 272 272 274 276 276 275 277 278 279 280 282 281 280 281 283 285 287 288 288 290 293 295 296 296 298 299 298 298 299 300 302 302 302 302
278 278 276 276 278 275 274 273 271 272 273 273 275 277 277 278 279 280 281 280 279 278 279 281 284 287 288 289 290 293 296 298 298 297 299 300 300 300 300 301 301 301 300
Height
5794 5792 5791 5790 5788 5787 5785 5784 5782 5780 5779 5778 5777 5775 5774 5773 5772 5772 5771 5771 5770 5770 5769 5769 5768 5767 5767 5766 5766 5765 5765 5765 5765 5765 5765 5765 5765 5765 5765 5766 5766 5766 5767
5790 5788 5787 5786 5784 5783 5781 5779 5777 5776 5774 5773 5772 5771 5770 5769 5768 5767 5767 5766 5766 5765 5765 5764 5764 5763 5762 5761 5760 5760 5760 5759 5759 5759 5759 5758 5758 5758 5758 5758 5758 5758 5759
5786 5784 5783 5782 5780 5779 5777 5775 5773 5772 5770 5769 5767 5767 5766 5765 5763 5763 5762 5762 5761 5761 5760 5759 5759 5758 5757 5756 5755 5755 5754 5753 5753 5753 5753 5752 5752 5751 5751 5751 5750 5751 5751
5781 5780 5779 5778 5776 5774 5773 5771 5769 5768 5766 5765 5763 5762 5761 5760 5759 5758 5758 5757 5757 5756 5755 5755 5754 5753 5752 5751 5750 5749 5748 5747 5747 5746 5746 5745 5745 5744 5743 5743 5743 5743 5743
5777 5776 5775 5773 5772 5770 5768 5767 5765 5764 5762 5761 5759 5758 5757 5756 5755 5754 5754 5753 5753 5752 5751 5750 5749 5748 5747 5745 5744 5743 5742 5741 5740 5739 5739 5738 5738 5737 5736 5735 5735 5735 5735
5773 5772 5770 5769 5767 5766 5764 5763 5761 5760 5759 5757 5756 5754 5753 5752 5751 5750 5749 5748 5748 5747 5746 5744 5743 5742 5741 5740 5738 5737 5736 5735 5734 5733 5732 5731 5731 5730 5729 5728 5727 5727 5726
5769 5767 5766 5764 5763 5762 5760 5759 5757 5756 5754 5753 5752 5750 5749 5748 5747 5746 5745 5744 5743 5742 5740 5739 5738 5737 5735 5734 5733 5731 5730 5728 5727 5726 5725 5724 5723 5722 5721 5720 5719 5719 5718
5764 5762 5761 5760 5758 5757 5756 5754 5753 5752 5750 5749 5747 5746 5745 5743 5742 5741 5740 5739 5738 5737 5735 5734 5732 5731 5729 5728 5727 5725 5724 5722 5721 5720 5718 5717 5715 5714 5713 5712 5711 5711 5710
5758 5757 5756 5755 5754 5753 5751 5750 5749 5747 5745 5744 5742 5741 5740 5739 5737 5736 5735 5734 5732 5731 5730 5728 5726 5725 5724 5722 5721 5719 5717 5715 5714 5712 5711 5709 5707 5706 5704 5704 5703 5703 5702
5753 5751 5750 5750 5749 5747 5746 5745 5743 5742 5740 5739 5737 5736 5735 5734 5732 5731 5730 5728 5727 5725 5724 5722 5721 5719 5717 5716 5714 5712 5710 5709 5707 5705 5703 5702 5700 5698 5697 5696 5696 5695 5694
5747 5746 5745 5744 5743 5742 5740 5739 5738 5736 5735 5733 5732 5731 5729 5728 5727 5725 5724 5722 5721 5719 5718 5716 5715 5713 5711 5709 5707 5706 5704 5702 5700 5698 5696 5694 5692 5691 5690 5689 5688 5687 5685
5742 5741 5739 5738 5737 5736 5735 5733 5732 5730 5729 5728 5726 5725 5724 5722 5721 5720 5718 5717 5715 5713 5712 5710 5708 5706 5705 5703 5701 5699 5697 5695 5693 5691 5689 5687 5685 5684 5682 5681 5680 5678 5677
5736 5735 5734 5732 5731 5730 5728 5727 5725 5724 5723 5721 5720 5718 5717 5716 5715 5713 5712 5710 5709 5707 5705 5704 5702 5700 5698 5696 5694 5692 5690 5688 5687 5684 5682 5680 5678 5677 5675 5674 5673 5671 5669
5730 5728 5727 5726 5725 5723 5722 5720 5719 5718 5716 5715 5714 5712 5710 5709 5708 5706 5705 5704 5702 5700 5699 5697 5695 5693 5692 5689 5687 5685 5683 5682 5680 5678 5676 5674 5671 5670 5668 5667 5666 5664 5663
5723 5721 5720 5719 5718 5717 5715 5714 5712 5711 5710 5708 5707 5706 5704 5702 5701 5700 5698 5697 5695 5694 5692 5691 5689 5687 5685 5683 5681 5679 5677 5675 5673 5671 5669 5667 5665 5663 5661 5660 5658 5657 5655
5716 5714 5713 5712 5710 5709 5708 5707 5705 5704 5703 5702 5701 5699 5698 5696 5695 5693 5692 5690 5689 5687 5686 5685 5683 5681 5679 5677 5675 5673 5671 5669 5667 5665 5663 5661 5658 5656 5655 5653 5651 5649 5648
5708 5707 5706 5704 5703 5702 5701 5699 5698 5698 5696 5695 5694 5693 5691 5690 5688 5687 5686 5684 5682 5681 5679 5678 5677 5675 5674 5672 5670 5668 5666 5663 5661 5659 5657 5654 5652 5650 5648 5646 5643 5642 5640
5700 5699 5698 5697 5695 5694 5693 5692 5691 5690 5689 5688 5687 5686 5685 5683 5682 5681 5679 5678 5676 5675 5673 5672 5670 5669 5668 5666 5664 5662 5660 5658 5656 5654 5651 5649 5646 5644 5641 5639 5636 5634 5632
5693 5691 5690 5689 5687 5686 5685 5684 5684 5683 5682 5681 5680 5679 5678 5677 5676 5675 5673 5672 5670 5669 5667 5666 5665 5663 5662 5660 5659 5657 5655 5652 5650 5648 5646 5643 5641 5638 5635 5633 5630 5628 5625
5685 5684 5682 5681 5680 5679 5678 5677 5677 5676 5675 5674 5673 5672 5671 5670 5669 5668 5667 5665 5664 5663 5661 5660 5659 5657 5656 5654 5653 5651 5649 5647 5644 5642 5640 5637 5635 5632 5630 5627 5624 5622 5619
5677 5676 5674 5673 5672 5672 5671 5671 5670 5669 5667 5667 5666 5665 5665 5664 5663 5662 5661 5660 5658 5657 5655 5654 5652 5651 5649 5648 5646 5645 5643 5641 5638 5636 5634 5632 5629 5627 5624 5621 5618 5616 5614
5670 5668 5667 5665 5665 5664 5664 5663 5663 5661 5661 5660 5659 5658 5658 5657 5656 5656 5655 5654 5652 5651 5649 5648 5647 5645 5644 5642 5640 5638 5636 5634 5633 5630 5628 5626 5623 5621 5618 5616 5613 5610 5608
5662 5660 5659 5658 5657 5657 5656 5655 5655 5654 5654 5653 5652 5652 5651 5650 5650 5650 5649 5647 5646 5645 5643 5642 5641 5640 5638 5636 5634 5632 5630 5628 5627 5625 5622 5620 5617 5615 5612 5610 5607 5605 5602
5654 5653 5651 5651 5650 5649 5649 5648 5648 5647 5647 5646 5646 5645 5644 5644 5643 5643 5642 5641 5640 5639 5638 5637 5636 5634 5632 5631 5629 5627 5625 5623 5620 5618 5616 5614 5612 5609 5607 5604 5602 5599 5596
5646 5645 5644 5643 5643 5642 5642 5641 5640 5640 5640 5639 5639 5638 5638 5637 5637 5636 5635 5634 5633 5633 5632 5631 5630 5628 5626 5625 5623 5621 5618 5616 5614 5612 5610 5608 5606 5604 5602 5599 5597 5594 5591
5638 5637 5637 5636 5636 5635 5635 5634 5634 5633 5633 5633 5632 5632 5631 5631 5630 5630 5629 5628 5627 5626 5626 5625 5624 5622 5620 5618 5616 5614 5612 5610 5608 5606 5604 5602 5600 5598 5596 5593 5591 5588 5586